timestamp,surface_pressure_avg,surface_temp_avg,battery_voltage,lat,long
2019-05-18 00:00:00+00:00,352.5229,3.39,13.21,47.84626,-54.09684
2019-05-18 00:10:00+00:00,346.108,3.4,13.05,47.84626,-54.09684
2019-05-18 00:20:00+00:00,339.2546,3.4,13.05,47.84626,-54.09684
2019-05-18 00:30:00+00:00,335.5662,3.4,13.05,47.84626,-54.09684
2019-05-18 00:40:00+00:00,330.0896,3.4,13.05,47.84626,-54.09684
2019-05-18 00:50:00+00:00,321.5363,3.4,13.05,47.84626,-54.09684
2019-05-18 01:00:00+00:00,316.593,3.4,12.97,47.84626,-54.09684
2019-05-18 01:10:00+00:00,308.8096,3.43,12.81,47.84626,-54.09684
2019-05-18 01:20:00+00:00,296.2314,3.47,12.97,47.84626,-54.09684
2019-05-18 01:30:00+00:00,288.613,3.5,12.97,47.84626,-54.09684
2019-05-18 01:40:00+00:00,284.0297,3.5,12.97,47.84626,-54.09684
2019-05-18 01:50:00+00:00,271.6397,3.5,12.97,47.84626,-54.09684
2019-05-18 02:00:00+00:00,257.1147,3.5,12.89,47.84626,-54.09684
2019-05-18 02:10:00+00:00,252.3181,3.5,12.81,47.84626,-54.09684
2019-05-18 02:20:00+00:00,247.4631,3.55,12.89,47.84626,-54.09684
2019-05-18 02:30:00+00:00,234.4281,3.6,12.89,47.84626,-54.09684
2019-05-18 02:40:00+00:00,225.6114,3.6,12.89,47.84626,-54.09684
2019-05-18 02:50:00+00:00,222.5231,3.6,12.97,47.84626,-54.09684
2019-05-18 03:00:00+00:00,211.3765,3.65,12.89,47.84626,-54.09684
2019-05-18 03:10:00+00:00,197.7764,3.68,12.81,47.84626,-54.09684
2019-05-18 03:20:00+00:00,195.0231,3.7,12.89,47.84626,-54.09684
2019-05-18 03:30:00+00:00,194.6015,3.7,12.89,47.84626,-54.09684
2019-05-18 03:40:00+00:00,183.8165,3.7,12.89,47.84626,-54.09684
2019-05-18 03:50:00+00:00,178.4665,3.7,12.89,47.84626,-54.09684
2019-05-18 04:00:00+00:00,184.1982,3.7,12.81,47.84626,-54.09684
2019-05-18 04:10:00+00:00,177.1548,3.7,12.73,47.84626,-54.09684
2019-05-18 04:20:00+00:00,166.3548,3.7,12.81,47.84626,-54.09684
2019-05-18 04:30:00+00:00,173.4248,3.77,12.89,47.84626,-54.09684
2019-05-18 04:40:00+00:00,179.0182,3.78,12.89,47.84626,-54.09684
2019-05-18 04:50:00+00:00,168.3431,3.8,12.89,47.84626,-54.09684
2019-05-18 05:00:00+00:00,166.5782,3.8,12.81,47.84626,-54.09684
2019-05-18 05:10:00+00:00,180.9015,3.8,12.73,47.84626,-54.09684
2019-05-18 05:20:00+00:00,178.9998,3.8,12.81,47.84626,-54.09684
2019-05-18 05:30:00+00:00,170.5615,3.81,12.81,47.84626,-54.09684
2019-05-18 05:40:00+00:00,178.0365,3.81,12.89,47.84626,-54.09684
2019-05-18 05:50:00+00:00,181.9515,3.8,12.89,47.84626,-54.09684
2019-05-18 06:00:00+00:00,176.5664,3.8,12.81,47.84626,-54.09684
2019-05-18 06:10:00+00:00,176.3998,3.8,12.73,47.84626,-54.09684
2019-05-18 06:20:00+00:00,184.9515,3.8,12.81,47.84626,-54.09684
2019-05-18 06:30:00+00:00,191.0031,3.8,12.81,47.84626,-54.09684
2019-05-18 06:40:00+00:00,190.8248,3.8,12.81,47.84626,-54.09684
2019-05-18 06:50:00+00:00,196.1014,3.8,12.81,47.84626,-54.09684
2019-05-18 07:00:00+00:00,204.9632,3.8,12.73,47.84626,-54.09684
2019-05-18 07:10:00+00:00,208.5364,3.79,12.73,47.84626,-54.09684
2019-05-18 07:20:00+00:00,207.9631,3.8,12.81,47.84626,-54.09684
2019-05-18 07:30:00+00:00,216.1631,3.77,12.81,47.84626,-54.09684
2019-05-18 07:40:00+00:00,227.9281,3.7,12.81,47.84626,-54.09684
2019-05-18 07:50:00+00:00,232.1447,3.7,12.81,47.84626,-54.09684
2019-05-18 08:00:00+00:00,236.1298,3.7,12.73,47.84626,-54.09684
2019-05-18 08:10:00+00:00,246.2381,3.7,12.65,47.84626,-54.09684
2019-05-18 08:20:00+00:00,254.5547,3.7,12.73,47.84626,-54.09684
2019-05-18 08:30:00+00:00,261.0997,3.7,12.73,47.84626,-54.09684
2019-05-18 08:40:00+00:00,268.8531,3.7,12.81,47.84626,-54.09684
2019-05-18 08:50:00+00:00,279.1697,3.68,12.81,47.84626,-54.09684
2019-05-18 09:00:00+00:00,288.1464,3.7,12.73,47.84626,-54.09684
2019-05-18 09:10:00+00:00,295.2214,3.63,12.65,47.84626,-54.09684
2019-05-18 09:20:00+00:00,299.813,3.66,12.73,47.84626,-54.09684
2019-05-18 09:30:00+00:00,308.3497,3.69,12.73,47.84626,-54.09684
2019-05-18 09:40:00+00:00,316.4064,3.6,12.73,47.84626,-54.09684
2019-05-18 09:50:00+00:00,320.818,3.6,12.81,47.84626,-54.09684
2019-05-18 10:00:00+00:00,324.7147,3.6,12.73,47.84626,-54.09684
2019-05-18 10:10:00+00:00,333.3646,3.6,12.65,47.84626,-54.09684
2019-05-18 10:20:00+00:00,338.6413,3.6,12.73,47.84626,-54.09684
2019-05-18 10:30:00+00:00,339.2946,3.6,12.81,47.84626,-54.09684
2019-05-18 10:40:00+00:00,339.7229,3.66,12.81,47.84626,-54.09684
2019-05-18 10:50:00+00:00,342.5246,3.7,12.81,47.84626,-54.09684
2019-05-18 11:00:00+00:00,344.8663,3.7,12.81,47.84626,-54.09684
2019-05-18 11:10:00+00:00,347.4313,3.6,12.73,47.84626,-54.09684
2019-05-18 11:20:00+00:00,351.8995,3.6,12.81,47.84626,-54.09684
2019-05-18 11:30:00+00:00,357.4396,3.6,12.81,47.84626,-54.09684
2019-05-18 11:40:00+00:00,358.1496,3.6,12.89,47.84626,-54.09684
2019-05-18 11:50:00+00:00,356.6495,3.6,12.89,47.84626,-54.09684
2019-05-18 12:00:00+00:00,354.8713,3.6,12.81,47.84626,-54.09684
2019-05-18 12:10:00+00:00,347.1896,3.6,12.81,47.84626,-54.09684
2019-05-18 12:20:00+00:00,336.6163,3.69,12.81,47.84626,-54.09684
2019-05-18 12:30:00+00:00,334.4147,3.68,12.89,47.84626,-54.09684
2019-05-18 12:40:00+00:00,331.7446,3.59,12.97,47.84626,-54.09684
2019-05-18 12:50:00+00:00,321.2747,3.6,13.05,47.84626,-54.09684
2019-05-18 13:00:00+00:00,316.5446,3.66,12.97,47.84626,-54.09684
2019-05-18 13:10:00+00:00,319.6647,3.61,12.97,47.84626,-54.09684
2019-05-18 13:20:00+00:00,315.373,3.64,13.05,47.84626,-54.09684
2019-05-18 13:30:00+00:00,300.3963,3.7,13.05,47.84626,-54.09684
2019-05-18 13:40:00+00:00,292.1913,3.7,13.21,47.84626,-54.09684
2019-05-18 13:50:00+00:00,289.5297,3.7,13.37,47.84626,-54.09684
2019-05-18 14:00:00+00:00,281.8447,3.7,13.37,47.84626,-54.09684
2019-05-18 14:10:00+00:00,268.3781,3.74,13.37,47.84626,-54.09684
2019-05-18 14:20:00+00:00,256.6714,3.76,13.6,47.84626,-54.09684
2019-05-18 14:30:00+00:00,245.9148,3.78,13.68,47.84626,-54.09684
2019-05-18 14:40:00+00:00,237.2831,3.79,13.68,47.84626,-54.09684
2019-05-18 14:50:00+00:00,234.8015,3.8,13.6,47.84626,-54.09684
2019-05-18 15:00:00+00:00,228.8297,3.8,13.53,47.84626,-54.09684
2019-05-18 15:10:00+00:00,219.6631,3.79,13.37,47.84626,-54.09684
2019-05-18 15:20:00+00:00,206.5797,3.8,13.44,47.84626,-54.09684
2019-05-18 15:30:00+00:00,193.4481,3.8,13.44,47.84626,-54.09684
2019-05-18 15:40:00+00:00,182.2664,3.8,13.53,47.84626,-54.09684
2019-05-18 15:50:00+00:00,178.7715,3.8,13.53,47.84626,-54.09684
2019-05-18 16:00:00+00:00,176.0048,3.8,13.44,47.84626,-54.09684
2019-05-18 16:10:00+00:00,169.3631,3.8,13.37,47.84626,-54.09684
2019-05-18 16:20:00+00:00,164.0248,3.83,13.53,47.84626,-54.09684
2019-05-18 16:30:00+00:00,166.4382,3.85,13.6,47.84626,-54.09684
2019-05-18 16:40:00+00:00,171.3898,3.82,13.68,47.84626,-54.09684
2019-05-18 16:50:00+00:00,168.5598,3.83,13.76,47.84626,-54.09684
2019-05-18 17:00:00+00:00,167.0915,3.86,13.84,47.84626,-54.09684
2019-05-18 17:10:00+00:00,172.7132,3.85,13.76,47.84626,-54.09684
2019-05-18 17:20:00+00:00,177.0131,3.84,13.84,47.84626,-54.09684
2019-05-18 17:30:00+00:00,177.9981,3.81,13.92,47.84626,-54.09684
2019-05-18 17:40:00+00:00,182.4431,3.8,14.0,47.84626,-54.09684
2019-05-18 17:50:00+00:00,185.5164,3.8,14.0,47.84626,-54.09684
2019-05-18 18:00:00+00:00,191.6165,3.8,13.92,47.84626,-54.09684
2019-05-18 18:10:00+00:00,203.0731,3.8,13.84,47.84626,-54.09684
2019-05-18 18:20:00+00:00,206.3815,3.8,13.92,47.84626,-54.09684
2019-05-18 18:30:00+00:00,204.3014,3.8,14.0,47.84626,-54.09684
2019-05-18 18:40:00+00:00,207.6514,3.8,14.08,47.84626,-54.09684
2019-05-18 18:50:00+00:00,209.4149,3.8,14.16,47.84626,-54.09684
2019-05-18 19:00:00+00:00,210.4398,3.8,14.08,47.84626,-54.09684
2019-05-18 19:10:00+00:00,221.0548,3.8,13.92,47.84626,-54.09684
2019-05-18 19:20:00+00:00,229.5964,3.8,14.0,47.84626,-54.09684
2019-05-18 19:30:00+00:00,233.8531,3.8,14.0,47.84626,-54.09684
2019-05-18 19:40:00+00:00,237.9198,3.8,14.0,47.84626,-54.09684
2019-05-18 19:50:00+00:00,247.2731,3.8,14.0,47.84626,-54.09684
2019-05-18 20:00:00+00:00,255.4581,3.8,13.92,47.84626,-54.09684
2019-05-18 20:10:00+00:00,260.2947,3.8,13.76,47.84626,-54.09684
2019-05-18 20:20:00+00:00,264.4714,3.83,13.76,47.84626,-54.09684
2019-05-18 20:30:00+00:00,274.9864,3.81,13.76,47.84626,-54.09684
2019-05-18 20:40:00+00:00,284.148,3.82,13.68,47.84626,-54.09684
2019-05-18 20:50:00+00:00,290.1963,3.89,13.68,47.84626,-54.09684
2019-05-18 21:00:00+00:00,298.1647,3.9,13.6,47.84626,-54.09684
2019-05-18 21:10:00+00:00,312.4346,3.9,13.44,47.84626,-54.09684
2019-05-18 21:20:00+00:00,315.513,3.93,13.44,47.84626,-54.09684
2019-05-18 21:30:00+00:00,320.5897,3.99,13.44,47.84626,-54.09684
2019-05-18 21:40:00+00:00,338.598,3.97,13.44,47.84626,-54.09684
2019-05-18 21:50:00+00:00,351.3714,3.91,13.37,47.84626,-54.09684
2019-05-18 22:00:00+00:00,350.3029,4.0,13.29,47.84626,-54.09684
2019-05-18 22:10:00+00:00,356.3113,4.0,13.13,47.84626,-54.09684
2019-05-18 22:20:00+00:00,370.6979,4.0,13.13,47.84626,-54.09684
2019-05-18 22:30:00+00:00,371.6946,4.0,13.13,47.84626,-54.09684
2019-05-18 22:40:00+00:00,367.6846,4.0,13.13,47.84626,-54.09684
2019-05-18 22:50:00+00:00,377.2596,4.0,13.05,47.84626,-54.09684
2019-05-18 23:00:00+00:00,387.9431,3.99,12.97,47.84626,-54.09684
2019-05-18 23:10:00+00:00,383.0096,4.0,12.89,47.84626,-54.09684
2019-05-18 23:20:00+00:00,380.0046,4.03,12.97,47.84626,-54.09684
2019-05-18 23:30:00+00:00,389.7045,4.06,12.97,47.84626,-54.09684
2019-05-18 23:40:00+00:00,396.0928,4.06,12.97,47.84626,-54.09684
2019-05-18 23:50:00+00:00,388.6912,4.1,12.97,47.84626,-54.09684
